This is the latest recevied weather packets stored in our database for station/object VE6EN. If no packets are shown the sender has not sent any weather packets the latest 10 day(s).
| Time | Temp. | Humidity | Pressure | Rain* | Wind** | Luminosity | Snow |
|---|---|---|---|---|---|---|---|
| 1777950000 | 7.78° C | 37% | 1015 hPa | 0 mm | - | - | - |
| 1777949399 | 7.78° C | 36% | 1015 hPa | 0 mm | - | - | - |
| 1777948800 | 7.78° C | 36% | 1014.9 hPa | 0 mm | - | - | - |
| 1777948204 | 8.33° C | 35% | 1014.8 hPa | 0 mm | - | - | - |
| 1777947600 | 8.33° C | 35% | 1014.7 hPa | 0 mm | - | - | - |
| 1777946999 | 8.89° C | 34% | 1014.6 hPa | 0 mm | - | - | - |
| 1777946402 | 8.89° C | 33% | 1014.5 hPa | 0 mm | - | - | - |
| 1777945799 | 8.89° C | 32% | 1014.4 hPa | 0 mm | - | - | - |
| 1777945199 | 9.44° C | 32% | 1014.3 hPa | 0 mm | - | - | - |
| 1777944602 | 10° C | 31% | 1014.3 hPa | 0 mm | - | - | - |
| 1777944000 | 10° C | 30% | 1014.3 hPa | 0 mm | - | - | - |
| 1777943399 | 10.56° C | 30% | 1014.2 hPa | 0 mm | - | - | - |
| 1777942800 | 10.56° C | 29% | 1014.1 hPa | 0 mm | - | - | - |
| 1777942200 | 10.56° C | 30% | 1014.3 hPa | 0 mm | - | - | - |
| 1777941598 | 10.56° C | 30% | 1014.3 hPa | 0 mm | - | - | - |
| 1777940999 | 10.56° C | 29% | 1014.3 hPa | 0 mm | - | - | - |
| 1777940399 | 11.11° C | 29% | 1014.3 hPa | 0 mm | - | - | - |
| 1777939800 | 11.11° C | 28% | 1014.4 hPa | 0 mm | - | - | - |
| 1777939200 | 11.11° C | 28% | 1014.3 hPa | 0 mm | - | - | - |
| 1777938599 | 11.67° C | 27% | 1014.3 hPa | 0 mm | - | - | - |
| 1777938000 | 11.67° C | 27% | 1014.3 hPa | 0 mm | - | - | - |
| 1777937404 | 12.22° C | 27% | 1014.3 hPa | 0 mm | - | - | - |
| 1777936804 | 12.22° C | 28% | 1014.2 hPa | 0 mm | - | - | - |
| 1777936199 | 11.67° C | 26% | 1014.2 hPa | 0 mm | - | - | - |
| 1777935602 | 11.67° C | 27% | 1014.3 hPa | 0 mm | - | - | - |
* Rain latest hour (hover to see other rain measurements)
** Current wind speed in m/s (hover to see current wind gust speed)